Weather History for KMVN - December, 2012

Change the Weather History Date:

Tuesday, December 18, 2012

  Actual Average Record
Temperature  
Mean Temperature 42 °F -  
Max Temperature 53 °F 38 °F 60 °F (2002)
Min Temperature 30 °F 23 °F -2 °F (2000)
Degree Days  
Heating Degree Days 24    
Moisture  
Dew Point 35 °F    
Average Humidity 73    
Maximum Humidity 87    
Minimum Humidity 54    
Precipitation  
Precipitation 0.01 in - - ()
Sea Level Pressure  
Sea Level Pressure 29.82 in    
Wind  
Wind Speed 7 mph (SSW)    
Max Wind Speed 22 mph    
Max Gust Speed 29 mph    
Visibility 10 miles    
Events      
Averages and records for this station are not official NWS values.
T = Trace of Precipitation, MM = Missing Value Source: NWS Daily Summary

Daily Weather History Graph

Daily Weather History Graph

Search for Another Location

Airport or City:

Trip Planner

Search our weather history database for the weather conditions in past years. The results will help you decide how hot, cold, wet, or windy it might be!

Date:

Astronomy

Dec. 18, 2012 Rise Set
Actual Time 7:07 AM CST 4:37 PM CST
Civil Twilight 6:37 AM CST 5:07 PM CST
Nautical Twilight 6:04 AM CST 5:40 PM CST
Astronomical Twilight 5:32 AM CST 6:12 PM CST
Moon 10:51 AM CST (12/18) 10:58 PM CST (12/18)
Length of Visible Light 10h 29m
Length of Day
9h 29m
Waxing Crescent, 35% of the Moon is Illuminated
Dec 18
Waxing Crescent
Dec 19
First Quarter
Dec 28
Full
Jan 4
Last Quarter
Jan 11
New

Hourly Weather History & Observations

Time (CST) Temp. Windchill Dew Point Humidity Pressure Visibility Wind Dir Wind Speed Gust Speed Precip Events Conditions
12:15 AM 39.2 °F 35.9 °F 32.0 °F 75% 29.82 in 9.0 mi West 4.6 mph - N/A   Overcast
12:35 AM 39.2 °F 34.2 °F 32.0 °F 75% 29.83 in 10.0 mi West 6.9 mph - N/A   Overcast
12:55 AM 39.2 °F 35.9 °F 32.0 °F 75% 29.83 in 10.0 mi West 4.6 mph - N/A   Overcast
1:15 AM 39.2 °F 35.9 °F 32.0 °F 75% 29.83 in 10.0 mi WNW 4.6 mph - N/A   Overcast
1:35 AM 39.2 °F - 32.0 °F 75% 29.84 in 10.0 mi Calm Calm - N/A   Overcast
1:55 AM 39.2 °F - 33.8 °F 81% 29.85 in 9.0 mi Calm Calm - N/A   Overcast
2:15 AM 39.2 °F 35.9 °F 33.8 °F 81% 29.85 in 9.0 mi West 4.6 mph - N/A   Overcast
2:35 AM 39.2 °F 35.9 °F 33.8 °F 81% 29.85 in 9.0 mi West 4.6 mph - N/A   Overcast
2:55 AM 39.2 °F - 33.8 °F 81% 29.85 in 10.0 mi Calm Calm - N/A   Overcast
3:15 AM 39.2 °F - 33.8 °F 81% 29.84 in 10.0 mi Calm Calm - N/A   Overcast
3:35 AM 39.2 °F 35.9 °F 33.8 °F 81% 29.85 in 10.0 mi West 4.6 mph - N/A   Overcast
3:55 AM 39.2 °F - 32.0 °F 75% 29.85 in 10.0 mi Calm Calm - N/A   Overcast
4:15 AM 39.2 °F - 32.0 °F 75% 29.85 in 10.0 mi Calm Calm - N/A   Overcast
4:35 AM 37.4 °F - 30.2 °F 75% 29.85 in 10.0 mi Calm Calm - N/A   Overcast
5:15 AM 33.8 °F - 28.4 °F 81% 29.85 in 10.0 mi Calm Calm - N/A   Partly Cloudy
5:35 AM 33.8 °F - 28.4 °F 81% 29.85 in 8.0 mi Calm Calm - N/A   Clear
5:55 AM 33.8 °F - 28.4 °F 81% 29.86 in 10.0 mi Calm Calm - N/A   Clear
6:15 AM 30.2 °F - 26.6 °F 86% 29.85 in 5.0 mi Calm Calm - N/A   Clear
6:35 AM 33.8 °F - 30.2 °F 87% 29.86 in 9.0 mi Calm Calm - N/A   Clear
6:55 AM 32.0 °F - 28.4 °F 87% 29.86 in 8.0 mi Calm Calm - N/A   Clear
7:15 AM 30.2 °F - 24.8 °F 80% 29.86 in 3.0 mi Calm Calm - N/A   Clear
7:35 AM 30.2 °F 24.3 °F 26.6 °F 86% 29.85 in 5.0 mi SSE 5.8 mph - N/A   Clear
7:55 AM 33.8 °F 28.6 °F 30.2 °F 87% 29.85 in 5.0 mi SSE 5.8 mph - 0.01 in   Clear
8:15 AM 35.6 °F 31.7 °F 30.2 °F 81% 29.86 in 8.0 mi SE 4.6 mph - N/A   Clear
8:35 AM 37.4 °F 32.1 °F 32.0 °F 81% 29.86 in 8.0 mi SSE 6.9 mph - N/A   Partly Cloudy
8:55 AM 39.2 °F 34.2 °F 33.8 °F 81% 29.86 in 9.0 mi SSE 6.9 mph - N/A   Partly Cloudy
9:15 AM 41.0 °F 35.8 °F 33.8 °F 76% 29.86 in 10.0 mi SSE 8.1 mph - N/A   Clear
9:35 AM 42.8 °F 37.0 °F 35.6 °F 76% 29.86 in 10.0 mi South 10.4 mph - N/A   Clear
9:55 AM 42.8 °F 35.8 °F 35.6 °F 76% 29.86 in 10.0 mi South 13.8 mph 18.4 mph N/A   Clear
10:15 AM 44.6 °F 38.8 °F 35.6 °F 71% 29.86 in 10.0 mi SSE 11.5 mph - N/A   Clear
10:35 AM 44.6 °F 39.2 °F 37.4 °F 76% 29.86 in 10.0 mi South 10.4 mph 17.3 mph N/A   Clear
10:55 AM 46.4 °F 41.5 °F 37.4 °F 71% 29.85 in 10.0 mi South 10.4 mph 16.1 mph N/A   Clear
11:15 AM 48.2 °F - 37.4 °F 66% 29.83 in 10.0 mi South 12.7 mph 18.4 mph N/A   Clear
11:35 AM 48.2 °F - 37.4 °F 66% 29.83 in 10.0 mi South 16.1 mph 20.7 mph N/A   Clear
11:55 AM 50.0 °F - 37.4 °F 62% 29.81 in 10.0 mi South 12.7 mph 18.4 mph N/A   Clear
12:15 PM 51.8 °F - 37.4 °F 58% 29.81 in 10.0 mi South 15.0 mph 19.6 mph N/A   Clear
12:35 PM 51.8 °F - 37.4 °F 58% 29.79 in 10.0 mi South 16.1 mph - N/A   Clear
12:55 PM 53.6 °F - 37.4 °F 54% 29.78 in 10.0 mi SSW 12.7 mph - N/A   Clear
1:15 PM 53.6 °F - 37.4 °F 54% 29.77 in 10.0 mi South 16.1 mph - N/A   Clear
1:35 PM 53.6 °F - 37.4 °F 54% 29.76 in 10.0 mi SSW 18.4 mph 23.0 mph N/A   Clear
1:55 PM 53.6 °F - 37.4 °F 54% 29.75 in 10.0 mi SSW 19.6 mph - N/A   Clear
2:15 PM 53.6 °F - 37.4 °F 54% 29.74 in 10.0 mi South 21.9 mph 27.6 mph N/A   Clear
2:35 PM 53.6 °F - 37.4 °F 54% 29.73 in 10.0 mi South 20.7 mph 25.3 mph N/A   Clear
2:55 PM 53.6 °F - 37.4 °F 54% 29.73 in 10.0 mi SSW 17.3 mph - N/A   Clear
3:15 PM 53.6 °F - 37.4 °F 54% 29.73 in 10.0 mi SSW 20.7 mph - N/A   Clear
3:35 PM 53.6 °F - 37.4 °F 54% 29.73 in 10.0 mi SSW 20.7 mph - N/A   Clear
3:55 PM 53.6 °F - 37.4 °F 54% 29.74 in 10.0 mi SSW 17.3 mph 25.3 mph N/A   Clear
4:15 PM 51.8 °F - 37.4 °F 58% 29.74 in 10.0 mi SSW 17.3 mph 28.8 mph N/A   Clear
4:35 PM 51.8 °F - 37.4 °F 58% 29.74 in 10.0 mi SSW 17.3 mph 28.8 mph N/A   Clear
4:55 PM 50.0 °F - 37.4 °F 62% 29.75 in 10.0 mi SSW 15.0 mph 19.6 mph N/A   Clear
5:15 PM 48.2 °F - 37.4 °F 66% 29.76 in 10.0 mi SW 11.5 mph - N/A   Clear
5:35 PM 46.4 °F 41.9 °F 37.4 °F 71% 29.77 in 10.0 mi SW 9.2 mph - N/A   Clear
5:55 PM 44.6 °F 39.7 °F 35.6 °F 71% 29.77 in 10.0 mi SSW 9.2 mph - N/A   Clear
6:15 PM 42.8 °F 38.0 °F 35.6 °F 76% 29.78 in 10.0 mi SSW 8.1 mph - N/A   Clear
6:35 PM 42.8 °F 38.0 °F 37.4 °F 81% 29.79 in 10.0 mi SSW 8.1 mph - N/A   Clear
6:55 PM 44.6 °F 39.2 °F 39.2 °F 81% 29.80 in 10.0 mi SSW 10.4 mph - N/A   Clear
7:15 PM 44.6 °F 39.2 °F 39.2 °F 81% 29.80 in 10.0 mi SW 10.4 mph - N/A   Clear
7:35 PM 44.6 °F 38.8 °F 39.2 °F 81% 29.81 in 10.0 mi SSW 11.5 mph - N/A   Clear
7:55 PM 44.6 °F 39.2 °F 39.2 °F 81% 29.82 in 10.0 mi SW 10.4 mph - N/A   Clear
8:15 PM 46.4 °F 41.5 °F 39.2 °F 76% 29.83 in 10.0 mi SW 10.4 mph - N/A   Clear
8:35 PM 46.4 °F 41.1 °F 39.2 °F 76% 29.84 in 10.0 mi SW 11.5 mph - N/A   Clear
8:55 PM 46.4 °F 41.5 °F 39.2 °F 76% 29.84 in 10.0 mi WSW 10.4 mph - N/A   Clear
9:15 PM 46.4 °F 41.9 °F 39.2 °F 76% 29.85 in 10.0 mi SW 9.2 mph - N/A   Clear
9:35 PM 44.6 °F 39.7 °F 37.4 °F 76% 29.86 in 10.0 mi SW 9.2 mph - N/A   Clear
9:55 PM 44.6 °F 40.2 °F 37.4 °F 76% 29.87 in 10.0 mi SW 8.1 mph - N/A   Clear
10:15 PM 42.8 °F 38.6 °F 37.4 °F 81% 29.88 in 10.0 mi SW 6.9 mph - N/A   Clear
10:35 PM 42.8 °F 40.1 °F 37.4 °F 81% 29.88 in 10.0 mi SW 4.6 mph - N/A   Clear
10:55 PM 42.8 °F 40.1 °F 37.4 °F 81% 29.89 in 10.0 mi WSW 4.6 mph - N/A   Clear
11:15 PM 44.6 °F 43.1 °F 37.4 °F 76% 29.90 in 10.0 mi West 3.5 mph - N/A   Clear
11:35 PM 42.8 °F - 37.4 °F 81% 29.90 in 10.0 mi Calm Calm - N/A   Clear
11:55 PM 42.8 °F 38.6 °F 35.6 °F 76% 29.92 in 10.0 mi North 6.9 mph - N/A   Clear